Previsão horária em Abohar

Hoje, 18 Abril, Domingo

Tempo Temperatura Precipitação Vento Pressão Humidade
00:00 +25°C° 0 mm 3 m/s 742 mmHg 45%
01:00 +24°C° 0 mm 3 m/s 741 mmHg 48%
02:00 +24°C° 0 mm 3 m/s 741 mmHg 50%
03:00 +22°C° 0 mm 3 m/s 741 mmHg 50%
04:00 +23°C° 0 mm 2 m/s 741 mmHg 49%
05:00 +23°C° 0 mm 2 m/s 742 mmHg 50%
06:00 +25°C° 0 mm 2 m/s 742 mmHg 44%
07:00 +27°C° 0 mm 2 m/s 743 mmHg 38%
08:00 +29°C° 0 mm 2 m/s 743 mmHg 33%
09:00 +31°C° 0 mm 2 m/s 743 mmHg 29%
10:00 +34°C° 0 mm 2 m/s 743 mmHg 25%
11:00 +36°C° 0 mm 2 m/s 743 mmHg 22%
12:00 +37°C° 0 mm 2 m/s 742 mmHg 19%
13:00 +38°C° 0 mm 2 m/s 742 mmHg 17%
14:00 +39°C° 0 mm 3 m/s 741 mmHg 15%
15:00 +39°C° 0 mm 3 m/s 740 mmHg 14%
16:00 +40°C° 0 mm 4 m/s 740 mmHg 13%
17:00 +38°C° 0 mm 3 m/s 740 mmHg 13%
18:00 +36°C° 0 mm 3 m/s 740 mmHg 16%
19:00 +34°C° 0 mm 2 m/s 740 mmHg 19%
20:00 +31°C° 0 mm 2 m/s 740 mmHg 22%
21:00 +30°C° 0 mm 2 m/s 740 mmHg 25%
22:00 +29°C° 0 mm 3 m/s 740 mmHg 27%
23:00 +28°C° 0 mm 3 m/s 740 mmHg 30%

Amanhã, 19 Abril, Segunda-feira

Tempo Temperatura Precipitação Vento Pressão Humidade
00:00 +27°C° 0 mm 3 m/s 740 mmHg 32%
01:00 +27°C° 0 mm 3 m/s 739 mmHg 34%
02:00 +26°C° 0 mm 3 m/s 739 mmHg 36%
03:00 +26°C° 0 mm 3 m/s 739 mmHg 37%
04:00 +25°C° 0 mm 3 m/s 739 mmHg 38%
05:00 +25°C° 0 mm 3 m/s 739 mmHg 39%
06:00 +27°C° 0 mm 3 m/s 739 mmHg 34%
07:00 +29°C° 0 mm 3 m/s 740 mmHg 30%
08:00 +31°C° 0 mm 2 m/s 740 mmHg 25%
09:00 +34°C° 0 mm 2 m/s 740 mmHg 22%
10:00 +36°C° 0 mm 2 m/s 740 mmHg 19%
11:00 +38°C° 0 mm 2 m/s 740 mmHg 16%
12:00 +39°C° 0 mm 2 m/s 739 mmHg 14%
13:00 +40°C° 0 mm 2 m/s 738 mmHg 12%
14:00 +41°C° 0 mm 2 m/s 737 mmHg 10%
15:00 +40°C° 0 mm 3 m/s 737 mmHg 10%
16:00 +41°C° 0 mm 4 m/s 736 mmHg 10%
17:00 +41°C° 0 mm 4 m/s 736 mmHg 10%
18:00 +38°C° 0 mm 4 m/s 736 mmHg 12%
19:00 +35°C° 0 mm 3 m/s 737 mmHg 14%
20:00 +33°C° 0 mm 3 m/s 737 mmHg 16%
21:00 +31°C° 0 mm 3 m/s 737 mmHg 17%
22:00 +31°C° 0 mm 3 m/s 737 mmHg 18%
23:00 +30°C° 0 mm 3 m/s 738 mmHg 19%

Depois de amanhã, 20 Abril, Terça-feira

Tempo Temperatura Precipitação Vento Pressão Humidade
00:00 +29°C° 0 mm 3 m/s 737 mmHg 19%
01:00 +29°C° 0 mm 2 m/s 737 mmHg 19%
02:00 +28°C° 0 mm 2 m/s 737 mmHg 19%
03:00 +28°C° 0 mm 2 m/s 737 mmHg 19%
04:00 +28°C° 0 mm 1 m/s 737 mmHg 20%
05:00 +28°C° 0 mm 1 m/s 737 mmHg 20%
06:00 +28°C° 0 mm 2 m/s 737 mmHg 21%
07:00 +29°C° 0 mm 3 m/s 738 mmHg 22%
08:00 +30°C° 0 mm 3 m/s 738 mmHg 23%
09:00 +32°C° 0 mm 4 m/s 738 mmHg 21%
10:00 +34°C° 0 mm 4 m/s 738 mmHg 20%
11:00 +35°C° 0 mm 4 m/s 738 mmHg 18%
12:00 +36°C° 0 mm 4 m/s 737 mmHg 18%
13:00 +36°C° 0 mm 4 m/s 737 mmHg 18%
14:00 +36°C° 0 mm 4 m/s 736 mmHg 18%
15:00 +34°C° 0 mm 5 m/s 736 mmHg 25%
16:00 +32°C° 0 mm 6 m/s 736 mmHg 31%
17:00 +28°C° 0 mm 7 m/s 736 mmHg 38%
18:00 +27°C° 0.1 mm 6 m/s 737 mmHg 45%
19:00 +25°C° 0.1 mm 4 m/s 737 mmHg 52%
20:00 +22°C° 0.1 mm 3 m/s 738 mmHg 59%
21:00 +23°C° 0 mm 2 m/s 738 mmHg 60%
22:00 +23°C° 0 mm 2 m/s 738 mmHg 61%
23:00 +21°C° 0 mm 2 m/s 738 mmHg 62%

21 Abril, Quarta-feira

Tempo Temperatura Precipitação Vento Pressão Humidade
00:00 +20°C° 0 mm 2 m/s 738 mmHg 64%
01:00 +20°C° 0 mm 2 m/s 738 mmHg 66%
02:00 +19°C° 0 mm 2 m/s 738 mmHg 69%
03:00 +19°C° 0 mm 2 m/s 738 mmHg 70%
04:00 +19°C° 0 mm 2 m/s 738 mmHg 71%
05:00 +18°C° 0 mm 2 m/s 738 mmHg 73%
06:00 +21°C° 0 mm 1 m/s 739 mmHg 66%
07:00 +23°C° 0 mm 1 m/s 740 mmHg 59%
08:00 +24°C° 0 mm 1 m/s 741 mmHg 52%
09:00 +26°C° 0 mm 1 m/s 741 mmHg 45%
10:00 +29°C° 0 mm 1 m/s 741 mmHg 38%
11:00 +31°C° 0 mm 1 m/s 741 mmHg 31%
12:00 +32°C° 0 mm 2 m/s 741 mmHg 28%
13:00 +34°C° 0 mm 3 m/s 740 mmHg 24%
14:00 +36°C° 0 mm 4 m/s 739 mmHg 21%
15:00 +35°C° 0 mm 3 m/s 739 mmHg 20%
16:00 +35°C° 0 mm 3 m/s 739 mmHg 19%
17:00 +34°C° 0 mm 3 m/s 739 mmHg 18%
18:00 +33°C° 0 mm 3 m/s 739 mmHg 21%
19:00 +30°C° 0 mm 2 m/s 739 mmHg 25%
20:00 +28°C° 0 mm 2 m/s 739 mmHg 28%
21:00 +28°C° 0 mm 2 m/s 739 mmHg 29%
22:00 +27°C° 0 mm 1 m/s 740 mmHg 30%
23:00 +27°C° 0 mm 1 m/s 740 mmHg 32%

22 Abril, Quinta-feira

Tempo Temperatura Precipitação Vento Pressão Humidade
00:00 +26°C° 0 mm 1 m/s 739 mmHg 33%
01:00 +26°C° 0 mm 1 m/s 739 mmHg 34%
02:00 +25°C° 0 mm 1 m/s 739 mmHg 35%
03:00 +25°C° 0 mm 1 m/s 739 mmHg 36%
04:00 +24°C° 0 mm 1 m/s 739 mmHg 37%
05:00 +24°C° 0 mm 1 m/s 739 mmHg 38%
06:00 +26°C° 0 mm 1 m/s 740 mmHg 34%
07:00 +28°C° 0 mm 1 m/s 740 mmHg 30%
08:00 +28°C° 0 mm 0 m/s 741 mmHg 26%
09:00 +32°C° 0 mm 1 m/s 741 mmHg 23%
10:00 +34°C° 0 mm 1 m/s 741 mmHg 20%
11:00 +37°C° 0 mm 2 m/s 741 mmHg 17%
12:00 +38°C° 0 mm 2 m/s 740 mmHg 16%
13:00 +38°C° 0 mm 3 m/s 739 mmHg 15%
14:00 +39°C° 0 mm 3 m/s 739 mmHg 14%
15:00 +39°C° 0 mm 3 m/s 738 mmHg 14%
16:00 +39°C° 0 mm 3 m/s 738 mmHg 13%
17:00 +40°C° 0 mm 4 m/s 738 mmHg 13%
18:00 +37°C° 0 mm 3 m/s 738 mmHg 15%
19:00 +35°C° 0 mm 2 m/s 738 mmHg 16%
20:00 +32°C° 0 mm 1 m/s 738 mmHg 18%
21:00 +32°C° 0 mm 2 m/s 738 mmHg 19%
22:00 +31°C° 0 mm 2 m/s 738 mmHg 19%
23:00 +31°C° 0 mm 2 m/s 738 mmHg 20%

23 Abril, Sexta-feira

Tempo Temperatura Precipitação Vento Pressão Humidade
00:00 +30°C° 0 mm 2 m/s 738 mmHg 21%
01:00 +29°C° 0 mm 2 m/s 738 mmHg 22%
02:00 +28°C° 0 mm 3 m/s 737 mmHg 23%
03:00 +28°C° 0 mm 3 m/s 737 mmHg 24%
04:00 +27°C° 0 mm 3 m/s 737 mmHg 25%
05:00 +27°C° 0 mm 3 m/s 737 mmHg 26%
06:00 +29°C° 0 mm 4 m/s 737 mmHg 23%
07:00 +32°C° 0 mm 4 m/s 738 mmHg 20%
08:00 +34°C° 0 mm 5 m/s 738 mmHg 17%
09:00 +37°C° 0 mm 4 m/s 738 mmHg 15%
10:00 +40°C° 0 mm 4 m/s 738 mmHg 12%
11:00 +42°C° 0 mm 4 m/s 738 mmHg 10%
12:00 +43°C° 0 mm 3 m/s 737 mmHg 9%
13:00 +44°C° 0 mm 3 m/s 737 mmHg 8%
14:00 +45°C° 0 mm 3 m/s 736 mmHg 7%
15:00 +44°C° 0 mm 3 m/s 736 mmHg 7%
16:00 +44°C° 0 mm 4 m/s 735 mmHg 7%
17:00 +45°C° 0 mm 5 m/s 735 mmHg 7%
18:00 +41°C° 0 mm 5 m/s 736 mmHg 10%
19:00 +37°C° 0 mm 5 m/s 736 mmHg 14%
20:00 +35°C° 0 mm 5 m/s 737 mmHg 18%
21:00 +33°C° 0 mm 4 m/s 737 mmHg 20%
22:00 +32°C° 0 mm 4 m/s 738 mmHg 22%
23:00 +30°C° 0 mm 3 m/s 738 mmHg 24%
Mostrar mais